Manistique, MI

5:02 PM EDT on August 24, 2016 (GMT -0400)
Schoolcraft County

Weather History for KISQ - September, 2013

Change the Weather History Date:

Saturday, September 28, 2013

  Actual Average Record
Temperature  
Mean Temperature 62 °F -  
Max Temperature 69 °F 59 °F 73 °F (2015)
Min Temperature 54 °F 42 °F 27 °F (1964)
Degree Days  
Heating Degree Days 4    
Growing Degree Days 12 (Base 50)    
Moisture  
Dew Point 58 °F    
Average Humidity 82    
Maximum Humidity 98    
Minimum Humidity 70    
Precipitation  
Precipitation 0.02 in - - ()
Sea Level Pressure  
Sea Level Pressure 29.99 in    
Wind  
Wind Speed 9 mph (SSE)    
Max Wind Speed 17 mph    
Max Gust Speed 25 mph    
Visibility 10 miles    
Events Rain    
Averages and records for this station are not official NWS values.
T = Trace of Precipitation, MM = Missing Value Source: NWS Daily Summary

Daily Weather History Graph

Daily Weather History Graph

Search for Another Location

Airport or City:

Trip Planner

Search our weather history database for the weather conditions in past years. The results will help you decide how hot, cold, wet, or windy it might be!

Date:

Astronomy

Sep. 28, 2013 Rise Set
Actual Time 7:39 AM EDT 7:30 PM EDT
Civil Twilight 7:09 AM EDT 7:59 PM EDT
Nautical Twilight 6:35 AM EDT 8:34 PM EDT
Astronomical Twilight 5:59 AM EDT 9:09 PM EDT
Moon 1:09 AM EDT (9/28) 4:03 PM EDT (9/28)
Length of Visible Light 12h 49m
Length of Day
11h 50m
Last Quarter, 36% of the Moon is Illuminated
Sep 28
Last Quarter
Oct 4
New
Oct 11
First Quarter
Oct 18
Full
Oct 26
Last Quarter

Hourly Weather History & Observations

Time (EDT) Temp. Dew Point Humidity Pressure Visibility Wind Dir Wind Speed Gust Speed Precip Events Conditions
12:16 AM 55.6 °F 54.1 °F 95% 30.11 in 10.0 mi SE 3.5 mph - N/A   Clear
12:37 AM 55.4 °F 54.1 °F 96% 30.11 in 10.0 mi SE 3.5 mph - N/A   Clear
12:56 AM 54.9 °F 54.1 °F 97% 30.11 in 10.0 mi SE 3.5 mph - N/A   Clear
1:16 AM 54.9 °F 54.3 °F 98% 30.11 in 10.0 mi ESE 4.6 mph - N/A   Clear
1:37 AM 57.0 °F 56.3 °F 97% 30.11 in 10.0 mi ESE 5.8 mph - N/A   Clear
1:56 AM 58.1 °F 56.5 °F 94% 30.10 in 10.0 mi SE 5.8 mph - N/A   Clear
2:17 AM 58.3 °F 56.7 °F 94% 30.11 in 10.0 mi ESE 5.8 mph - N/A   Clear
2:37 AM 58.5 °F 56.8 °F 94% 30.10 in 10.0 mi SE 5.8 mph - N/A   Clear
2:56 AM 59.2 °F 56.7 °F 91% 30.10 in 10.0 mi SE 5.8 mph - N/A   Clear
3:17 AM 60.6 °F 57.0 °F 88% 30.10 in 10.0 mi SSE 6.9 mph - N/A   Clear
3:36 AM 60.4 °F 57.2 °F 89% 30.09 in 10.0 mi SE 5.8 mph - N/A   Clear
3:56 AM 60.8 °F 57.2 °F 88% 30.09 in 10.0 mi SSE 5.8 mph - N/A   Clear
4:17 AM 60.6 °F 57.2 °F 88% 30.09 in 10.0 mi SSE 6.9 mph - N/A   Clear
4:36 AM 60.8 °F 57.4 °F 88% 30.09 in 10.0 mi SSE 8.1 mph - N/A   Clear
4:56 AM 61.0 °F 57.6 °F 88% 30.09 in 10.0 mi SSE 8.1 mph - N/A   Clear
5:17 AM 60.8 °F 57.4 °F 88% 30.08 in 10.0 mi SSE 6.9 mph - N/A   Clear
5:36 AM 60.8 °F 57.4 °F 88% 30.09 in 10.0 mi SSE 8.1 mph - N/A   Clear
5:57 AM 60.8 °F 57.6 °F 89% 30.09 in 10.0 mi SSE 6.9 mph - N/A   Clear
6:17 AM 60.8 °F 57.4 °F 88% 30.09 in 10.0 mi SSE 6.9 mph - N/A   Clear
6:36 AM 60.6 °F 57.2 °F 88% 30.09 in 10.0 mi SSE 9.2 mph - N/A   Clear
6:57 AM 60.8 °F 57.0 °F 87% 30.10 in 10.0 mi South 9.2 mph - N/A   Clear
7:16 AM 60.3 °F 57.2 °F 90% 30.10 in 10.0 mi SSE 8.1 mph - N/A   Clear
7:36 AM 60.4 °F 57.2 °F 89% 30.09 in 10.0 mi SSE 9.2 mph - N/A   Clear
7:57 AM 60.6 °F 57.4 °F 89% 30.09 in 10.0 mi South 10.4 mph - N/A   Clear
8:16 AM 61.0 °F 57.6 °F 88% 30.09 in 10.0 mi SSE 9.2 mph - N/A   Clear
8:37 AM 61.3 °F 57.7 °F 88% 30.09 in 10.0 mi South 9.2 mph - N/A   Clear
8:57 AM 61.9 °F 58.1 °F 87% 30.08 in 10.0 mi SSE 11.5 mph 16.1 mph N/A   Clear
9:16 AM 62.6 °F 57.6 °F 84% 30.08 in 10.0 mi SSE 8.1 mph 18.4 mph N/A   Clear
9:37 AM 63.1 °F 57.9 °F 83% 30.08 in 10.0 mi South 10.4 mph - N/A   Clear
9:57 AM 63.5 °F 56.8 °F 79% 30.08 in 10.0 mi SSE 11.5 mph 16.1 mph N/A   Clear
10:16 AM 64.0 °F 57.2 °F 78% 30.07 in 10.0 mi SSE 9.2 mph 17.3 mph N/A   Clear
10:37 AM 64.8 °F 56.3 °F 74% 30.07 in 10.0 mi SSE 10.4 mph 18.4 mph N/A   Clear
10:56 AM 64.6 °F 56.5 °F 75% 30.06 in 10.0 mi SSE 11.5 mph - N/A   Clear
11:16 AM 64.6 °F 56.8 °F 76% 30.06 in 10.0 mi SSE 12.7 mph 18.4 mph N/A   Clear
11:37 AM 64.4 °F 57.4 °F 78% 30.05 in 10.0 mi SSE 12.7 mph 19.6 mph N/A   Clear
11:56 AM 64.6 °F 57.2 °F 77% 30.05 in 10.0 mi SSE 12.7 mph 19.6 mph N/A   Clear
12:17 PM 65.3 °F 58.1 °F 77% 30.04 in 10.0 mi SSE 13.8 mph 21.9 mph N/A   Clear
12:37 PM 65.7 °F 57.9 °F 76% 30.03 in 10.0 mi SSE 13.8 mph 23.0 mph N/A   Clear
12:56 PM 65.3 °F 57.7 °F 76% 30.02 in 10.0 mi SSE 13.8 mph 23.0 mph N/A   Clear
1:17 PM 66.4 °F 58.1 °F 75% 30.02 in 10.0 mi SSE 15.0 mph 19.6 mph N/A   Clear
1:37 PM 66.7 °F 59.0 °F 76% 30.00 in 10.0 mi SSE 15.0 mph - N/A   Clear
1:56 PM 66.6 °F 59.0 °F 77% 29.99 in 10.0 mi SE 15.0 mph 21.9 mph N/A   Clear
2:17 PM 66.6 °F 59.2 °F 77% 29.98 in 10.0 mi SSE 13.8 mph - N/A   Clear
2:36 PM 67.1 °F 59.0 °F 75% 29.97 in 10.0 mi SSE 13.8 mph 20.7 mph N/A   Clear
2:56 PM 66.2 °F 59.2 °F 78% 29.95 in 10.0 mi SSE 13.8 mph 20.7 mph N/A   Clear
3:17 PM 68.2 °F 59.7 °F 74% 29.94 in 10.0 mi SSE 16.1 mph 20.7 mph N/A   Clear
3:36 PM 67.8 °F 59.5 °F 75% 29.93 in 10.0 mi SSE 11.5 mph 20.7 mph N/A   Clear
3:56 PM 68.2 °F 59.9 °F 75% 29.92 in 10.0 mi SSE 13.8 mph 18.4 mph N/A   Clear
4:17 PM 67.8 °F 59.0 °F 73% 29.91 in 10.0 mi SSE 15.0 mph 23.0 mph N/A   Clear
4:36 PM 69.4 °F 59.4 °F 70% 29.90 in 10.0 mi SSE 15.0 mph 20.7 mph N/A   Clear
4:57 PM 66.9 °F 58.6 °F 75% 29.88 in 10.0 mi SSE 13.8 mph 19.6 mph N/A   Clear
5:17 PM 67.1 °F 58.1 °F 73% 29.88 in 10.0 mi SSE 12.7 mph 19.6 mph N/A   Clear
5:36 PM 69.3 °F 59.0 °F 70% 29.88 in 10.0 mi SSE 13.8 mph 19.6 mph N/A   Clear
5:57 PM 66.6 °F 58.8 °F 76% 29.88 in 10.0 mi South 12.7 mph 21.9 mph N/A   Clear
6:16 PM 66.7 °F 59.0 °F 76% 29.88 in 10.0 mi South 12.7 mph 19.6 mph N/A   Clear
6:36 PM 66.0 °F 58.6 °F 77% 29.88 in 10.0 mi South 11.5 mph 18.4 mph N/A   Clear
6:57 PM 65.5 °F 57.2 °F 75% 29.87 in 10.0 mi South 12.7 mph 18.4 mph N/A   Clear
7:16 PM 66.4 °F 57.2 °F 72% 29.86 in 10.0 mi South 16.1 mph 20.7 mph N/A   Mostly Cloudy
7:37 PM 65.7 °F 57.4 °F 75% 29.85 in 10.0 mi South 11.5 mph 17.3 mph N/A   Mostly Cloudy
7:57 PM 64.9 °F 58.1 °F 78% 29.83 in 10.0 mi South 11.5 mph - N/A   Scattered Clouds
8:16 PM 64.8 °F 58.3 °F 79% 29.83 in 10.0 mi SSE 11.5 mph - N/A   Scattered Clouds
8:37 PM 64.9 °F 59.5 °F 83% 29.82 in 10.0 mi SE 9.2 mph - N/A   Overcast
8:57 PM 65.1 °F 59.5 °F 82% 29.81 in 10.0 mi SE 11.5 mph - N/A   Overcast
9:16 PM 67.1 °F 59.0 °F 75% 29.81 in 10.0 mi SSE 12.7 mph 19.6 mph N/A   Overcast
9:37 PM 67.3 °F 58.3 °F 73% 29.80 in 10.0 mi SSE 12.7 mph 21.9 mph N/A   Overcast
9:56 PM 67.3 °F 58.3 °F 73% 29.79 in 10.0 mi SSE 15.0 mph 19.6 mph N/A   Overcast
10:16 PM 67.3 °F 58.3 °F 73% 29.79 in 10.0 mi SSE 17.3 mph 23.0 mph N/A   Overcast
10:37 PM 67.5 °F 57.7 °F 71% 29.78 in 10.0 mi SSE 17.3 mph 25.3 mph N/A   Overcast
10:56 PM 66.7 °F 58.5 °F 75% 29.79 in 10.0 mi South 13.8 mph 20.7 mph N/A   Overcast
11:17 PM 64.8 °F 59.5 °F 83% 29.81 in 10.0 mi SSW 16.1 mph 25.3 mph N/A Rain Light Rain
11:37 PM 62.6 °F 60.4 °F 93% 29.81 in 5.0 mi SSW 15.0 mph 23.0 mph 0.01 in Rain Rain
11:56 PM 61.9 °F 60.8 °F 96% 29.81 in 4.0 mi SSW 13.8 mph 21.9 mph 0.02 in Rain Light Rain